Regional Weather Roundup
Issued by NWS Midland/Odessa, TX

Skip options and go directly to product.
Home | Oldest Version | Previous Version | Current Version | All | Text Only | Save Text | Print | Product List | Glossary On

Skip product version selection by date and time.   
004
ASUS44 KMAF 241110
RWRMAF
MIDLAND AREA WEATHER ROUNDUP
NATIONAL WEATHER SERVICE MIDLAND TX
600 AM CDT FRI OCT 24 2014

...IN SOUTHWEST TEXAS AND SOUTHEAST NEW MEXICO...

CITY           SKY/WX    TMP DP  RH WIND       PRES   REMARKS
ALPINE         CLEAR     58  54  86 SW8       30.28S
ANDREWS        FAIR      58  57  98 SW8       30.15S FOG
ARTESIA        NOT AVBL
BIG SPRING     MOCLDY    59  57  93 SE6       30.16S VSB 1/4
CARLSBAD       CLEAR     57  54  89 N3        30.14S
DRYDEN           N/A     59  58  96 N5        30.12S
FORT STOCKTON  CLEAR     60  55  83 S10       30.14S
GUAD PASS      CLEAR     58  49  72 SW10      30.28R
HOBBS          NOT AVBL
MARFA          CLEAR     48  46  93 N3        30.27S
MIDLAND AIRPK  CLEAR     60  60 100 SW3       30.15S FOG
MIDLAND INTL   CLEAR     60  58  92 SW8       30.14S FOG
ODESSA         CLEAR     60  58  92 SW7       30.15S FOG
PECOS          CLEAR     54  52  95 NW3       30.13R FOG
PRESIDIO       FAIR      64  57  76 N9        30.15S
SEMINOLE       CLEAR     57  56  97 W6        30.16S
SNYDER         FOG       56  56  99 SW6       30.14S VSB 1/4
WINK           CLEAR     59  32  36 E3        30.12S
$$
...OTHER STATIONS IN TEXAS...

CITY           SKY/WX    TMP DP  RH WIND       PRES   REMARKS
ABILENE        CLEAR     62  59  90 SW7       30.12R
AMARILLO       CLEAR     54  50  86 SW9       30.12S
AUSTIN         PTCLDY    56  55  97 CALM      30.13S
BROWNSVILLE    MOCLDY    68  66  93 NW6       30.06R
CORPUS CHRISTI PTCLDY    64  62  93 N6        30.10R
DALLAS FTW     PTCLDY    63  55  75 S7        30.12R
DEL RIO        CLEAR     63  60  90 E3        30.09S
EL PASO        CLEAR     60  51  72 CALM      30.19R
HOUSTON INT    CLEAR     55  53  93 N3        30.13R
LUBBOCK        CLEAR     52  51  97 W5        30.13S
SAN ANGELO     CLEAR     55  54  96 SW5       30.13R FOG
SAN ANTONIO    CLEAR     62  57  83 CALM      30.13R
WACO           PTCLDY    63  55  75 S9        30.13S
WICHITA FALLS  NOT AVBL
$$
...OTHER LOCATIONS IN NEW MEXICO...

CITY           SKY/WX    TMP DP  RH WIND       PRES   REMARKS
ALAMAGORDO     NOT AVBL
ALBUQUERQUE    CLEAR     55  34  45 NW3       30.28R
CANNON AFB     CLEAR     57  52  82 W10       30.16S
CLOVIS         CLEAR     50  45  81 NW7       30.19R
HOLLOMAN AFB   CLEAR     52  45  77 N2        30.20S
ROSWELL        CLEAR     50  47  89 SE5       30.16R
RUIDOSO        CLEAR     50  37  62 W9        30.36R
SANTA FE       CLEAR     46  30  53 N13       30.30S
TRUTH OR CONSE CLEAR     54  45  71 W3        30.24S
TUCUMCARI      CLEAR     49  41  74 W8        30.14R
$$

USA.gov is the U.S. government's official web portal to all federal, state and local government web resources and services.